Location: Newark
(47.5833°N, 8.1500°E)
Time: 18:22:30
(UTC+00:00)

Transit 2A - Pass Details

Date: 30 October 2020
Orbit: 595 x 964 km, 66.7° (Epoch: 01 December)

Event Time Altitude Azimuth Distance (km) Brightness Sun altitude
Rises 05:43:07 0° 321° (NW) 3,571 9.0 -5.0°
Reaches altitude 10° 05:47:06 10° 345° (NNW) 2,561 8.4 -4.3°
Maximum altitude 05:50:11 14° 17° (NNE) 2,208 8.4 -3.8°
Drops below altitude 10° 05:53:08 10° 49° (NE) 2,434 9.1 -3.3°
Sets 05:56:45 0° 74° (ENE) 3,276 10.3 -2.8°
